Weather History for Shawano, WI

Change the Weather History Date:

Saturday, February 2, 2013

  Actual Average (KGRB) Record (KGRB)
Temperature  
Mean Temperature 10 °F 17 °F  
Max Temperature 17 °F 25 °F 45 °F (1992)
Min Temperature 3 °F 10 °F -26 °F (1971)
Degree Days  
Heating Degree Days 55 48  
Month to date heating degree days 96  
Since 1 July heating degree days 4685  
Cooling Degree Days 0 0  
Month to date cooling degree days 0  
Year to date cooling degree days 0  
Moisture  
Dew Point -3 °F    
Average Humidity 60    
Maximum Humidity 78    
Minimum Humidity 38    
Precipitation  
Precipitation 0.00 in 0.03 in 0.56 in (1891)
Month to date precipitation 0.06  
Year to date precipitation 1.19  
Snow  
Snow 0.00 in 0.40 in 5.60 in (1891)
Month to date snowfall 0.8  
Since 1 July snowfall 31.1  
Snow Depth -    
Sea Level Pressure  
Sea Level Pressure 30.05 in    
Wind  
Wind Speed - (North)    
Max Wind Speed -    
Max Gust Speed -    
Visibility 10 miles    
Events      
T = Trace of Precipitation, MM = Missing Value Source: NWS Daily Summary

Daily Weather History Graph

Daily Weather History Graph

Search for Another Location

Airport:

Trip Planner

Search our weather history database for the weather conditions in past years. The results will help you decide how hot, cold, wet, or windy it might be!

Date:

Astronomy

Feb. 02, 2013 Rise Set
Actual Time 7:12 AM CST 5:04 PM CST
Civil Twilight 6:41 AM CST 5:35 PM CST
Nautical Twilight 6:06 AM CST 6:10 PM CST
Astronomical Twilight 5:31 AM CST 6:44 PM CST
Moon No Moon Rise 10:02 AM CST (2/2)
Length of Visible Light 10h 54m
Length of Day
9h 52m
Waning Gibbous, 59% of the Moon is Illuminated
Feb 2
Waning Gibbous
Feb 3
Last Quarter
Feb 10
New
Feb 17
First Quarter
Feb 25
Full

Hourly Weather History & Observations

Time (CST) Temp. Dew Point Humidity Pressure Visibility Wind Dir Wind Speed Gust Speed Precip Events Conditions
12:15 AM 5.0 °F -4.0 °F 66% 30.09 in 7.0 mi North - - N/A   Overcast
12:35 AM 5.0 °F -4.0 °F 66% 30.09 in 10.0 mi North - - N/A   Overcast
12:55 AM 5.0 °F -4.0 °F 66% 30.09 in 10.0 mi North - - N/A   Overcast
1:15 AM 5.0 °F -4.0 °F 66% 30.09 in 10.0 mi North - - N/A   Overcast
1:35 AM 5.0 °F -4.0 °F 66% 30.09 in 10.0 mi North - - N/A   Overcast
2:15 AM 5.0 °F -4.0 °F 66% 30.09 in 10.0 mi North - - N/A   Overcast
2:35 AM 5.0 °F -2.2 °F 72% 30.08 in 10.0 mi North - - N/A   Overcast
2:55 AM 5.0 °F -2.2 °F 72% 30.07 in 10.0 mi North - - N/A   Overcast
3:15 AM 5.0 °F -2.2 °F 72% 30.07 in 7.0 mi North - - N/A   Overcast
3:35 AM 5.0 °F -2.2 °F 72% 30.06 in 7.0 mi North - - N/A   Overcast
3:55 AM 5.0 °F -4.0 °F 66% 30.06 in 10.0 mi North - - N/A   Overcast
4:15 AM 5.0 °F -4.0 °F 66% 30.05 in 10.0 mi North - - N/A   Overcast
4:35 AM 5.0 °F -4.0 °F 66% 30.05 in 10.0 mi North - - N/A   Overcast
4:55 AM 5.0 °F -4.0 °F 66% 30.06 in 10.0 mi North - - N/A   Overcast
5:15 AM 5.0 °F -4.0 °F 66% 30.06 in 10.0 mi North - - N/A   Overcast
5:35 AM 5.0 °F -4.0 °F 66% 30.06 in 10.0 mi North - - N/A   Overcast
5:55 AM 5.0 °F -4.0 °F 66% 30.06 in 10.0 mi North - - N/A   Overcast
6:15 AM 5.0 °F -4.0 °F 66% 30.07 in 10.0 mi North - - N/A   Overcast
6:35 AM 5.0 °F -4.0 °F 66% 30.07 in 10.0 mi North - - N/A   Overcast
6:55 AM 5.0 °F -4.0 °F 66% 30.08 in 10.0 mi North - - N/A   Overcast
7:15 AM 3.2 °F -5.8 °F 66% 30.08 in 10.0 mi North - - N/A   Overcast
7:35 AM 3.2 °F -5.8 °F 66% 30.09 in 10.0 mi North - - N/A   Overcast
7:55 AM 3.2 °F -5.8 °F 66% 30.09 in 10.0 mi North - - N/A   Overcast
8:15 AM 3.2 °F -5.8 °F 66% 30.10 in 10.0 mi North - - N/A   Scattered Clouds
8:35 AM 3.2 °F -5.8 °F 66% 30.10 in 10.0 mi North - - N/A   Clear
8:55 AM 3.2 °F -5.8 °F 66% 30.10 in 10.0 mi North - - N/A   Clear
9:15 AM 5.0 °F -5.8 °F 61% 30.10 in 10.0 mi North - - N/A   Clear
9:35 AM 6.8 °F -5.8 °F 56% 30.10 in 10.0 mi North - - N/A   Clear
9:55 AM 8.6 °F -4.0 °F 57% 30.09 in 10.0 mi North - - N/A   Clear
10:15 AM 8.6 °F -4.0 °F 57% 30.09 in 10.0 mi North - - N/A   Clear
10:35 AM 10.4 °F -4.0 °F 52% 30.09 in 10.0 mi North - - N/A   Clear
10:55 AM 10.4 °F -4.0 °F 52% 30.09 in 10.0 mi North - - N/A   Clear
11:15 AM 14.0 °F -2.2 °F 49% 30.09 in 10.0 mi North - - N/A   Clear
11:55 AM 14.0 °F -2.2 °F 49% 30.07 in 10.0 mi North - - N/A   Clear
12:15 PM 14.0 °F -2.2 °F 49% 30.07 in 10.0 mi North - - N/A   Clear
12:35 PM 15.8 °F -2.2 °F 45% 30.06 in 10.0 mi North - - N/A   Clear
12:55 PM 15.8 °F -2.2 °F 45% 30.06 in 10.0 mi North - - N/A   Clear
1:15 PM 17.6 °F -2.2 °F 42% 30.05 in 10.0 mi North - - N/A   Clear
1:35 PM 17.6 °F -2.2 °F 42% 30.05 in 10.0 mi North - - N/A   Clear
1:55 PM 17.6 °F -2.2 °F 42% 30.05 in 10.0 mi North - - N/A   Clear
2:15 PM 17.6 °F -4.0 °F 38% 30.04 in 10.0 mi North - - N/A   Clear
2:35 PM 17.6 °F -4.0 °F 38% 30.04 in 10.0 mi North - - N/A   Clear
2:55 PM 17.6 °F -4.0 °F 38% 30.04 in 10.0 mi North - - N/A   Clear
3:15 PM 17.6 °F -4.0 °F 38% 30.04 in 10.0 mi North - - N/A   Clear
3:35 PM 17.6 °F -4.0 °F 38% 30.03 in 10.0 mi North - - N/A   Clear
3:55 PM 17.6 °F -2.2 °F 42% 30.03 in 10.0 mi North - - N/A   Clear
4:15 PM 17.6 °F -0.4 °F 45% 30.03 in 10.0 mi North - - N/A   Clear
4:35 PM 15.8 °F -0.4 °F 49% 30.04 in 10.0 mi North - - N/A   Clear
4:55 PM 14.0 °F -0.4 °F 53% 30.04 in 10.0 mi North - - N/A   Clear
5:15 PM 14.0 °F -0.4 °F 53% 30.05 in 10.0 mi North - - N/A   Clear
5:35 PM 14.0 °F -0.4 °F 53% 30.05 in 10.0 mi North - - N/A   Clear
5:55 PM 14.0 °F -0.4 °F 53% 30.05 in 10.0 mi North - - N/A   Clear
6:15 PM 12.2 °F -0.4 °F 57% 30.04 in 10.0 mi North - - N/A   Clear
6:35 PM 12.2 °F -0.4 °F 57% 30.04 in 10.0 mi North - - N/A   Clear
6:55 PM 12.2 °F -0.4 °F 57% 30.04 in 10.0 mi North - - N/A   Clear
7:35 PM 10.4 °F -0.4 °F 62% 30.03 in 10.0 mi North - - N/A   Scattered Clouds
8:15 PM 8.6 °F -0.4 °F 67% 30.02 in 10.0 mi North - - N/A   Scattered Clouds
8:35 PM 8.6 °F -0.4 °F 67% 30.02 in 10.0 mi North - - N/A   Scattered Clouds
8:55 PM 6.8 °F -0.4 °F 72% 30.02 in 10.0 mi North - - N/A   Clear
9:15 PM 5.0 °F -0.4 °F 78% 30.02 in 10.0 mi North - - N/A   Clear
9:35 PM 3.2 °F -4.0 °F 72% 30.01 in 10.0 mi North - - N/A   Clear
9:55 PM 5.0 °F -0.4 °F 78% 30.01 in 10.0 mi North - - N/A   Clear
10:15 PM 5.0 °F -0.4 °F 78% 30.01 in 10.0 mi North - - N/A   Clear
10:35 PM 5.0 °F -0.4 °F 78% 30.00 in 10.0 mi North - - N/A   Scattered Clouds
10:55 PM 5.0 °F -0.4 °F 78% 29.98 in 10.0 mi North - - N/A   Clear
11:15 PM 5.0 °F -0.4 °F 78% 29.97 in 10.0 mi North - - N/A   Scattered Clouds
11:35 PM 5.0 °F -0.4 °F 78% 29.97 in 10.0 mi North - - N/A   Scattered Clouds
11:55 PM 5.0 °F -0.4 °F 78% 29.96 in 10.0 mi North - - N/A   Mostly Cloudy